STARLINK-35890

Last updated on Mon Dec 15 2025 00:02:12 GMT+0000 (Coordinated Universal Time)

1 66835U 25280Q 25348.25003472 -.01717894 00000+0 -13373-1 0 9996 2 66835 69.9940 194.5127 0003717 270.3886 55.2025 15.74415005 3147
UTC large
Height (km)
Speed (km/s)
/
Latitude / Longitude
Inclination (degrees)
Orbital Period (minutes)
Azimuth
Elevation
Range (km)
Doppler Factor

Next 0 passes for location: London (51.5072 / 0.1276)

Sorry there are no passes over London.